Weather History for KACT - April, 2013

Change the Weather History Date:

Monday, April 8, 2013

  Actual Average Record
Temperature  
Mean Temperature 71 °F 64 °F  
Max Temperature 75 °F 76 °F 95 °F (1948)
Min Temperature 67 °F 52 °F 33 °F (1938)
Degree Days  
Heating Degree Days 0 4  
Month to date heating degree days 46 34  
Since 1 July heating degree days 1894 2092  
Cooling Degree Days 6 3  
Month to date cooling degree days 12 19  
Year to date cooling degree days 55 62  
Growing Degree Days 20 (Base 50)    
Moisture  
Dew Point 61 °F    
Average Humidity 74    
Maximum Humidity 87    
Minimum Humidity 61    
Precipitation  
Precipitation 0.00 in 0.07 in 1.22 in (1915)
Month to date precipitation 0.39 0.58  
Year to date precipitation 9.37 8.48  
Snow  
Snow 0.00 in 0.00 in 0.10 in (2007)
Month to date snowfall 0.0 0.1  
Since 1 July snowfall T 1.1  
Snow Depth 0.00 in    
Sea Level Pressure  
Sea Level Pressure 29.73 in    
Wind  
Wind Speed 17 mph (South)    
Max Wind Speed 26 mph    
Max Gust Speed 33 mph    
Visibility 8 miles    
Events      
T = Trace of Precipitation, MM = Missing Value Source: NWS Daily Summary

Daily Weather History Graph

Daily Weather History Graph

Search for Another Location

Airport or City:

Trip Planner

Search our weather history database for the weather conditions in past years. The results will help you decide how hot, cold, wet, or windy it might be!

Date:

Astronomy

Apr. 08, 2013 Rise Set
Actual Time 7:08 AM CDT 7:53 PM CDT
Civil Twilight 6:43 AM CDT 8:18 PM CDT
Nautical Twilight 6:14 AM CDT 8:47 PM CDT
Astronomical Twilight 5:44 AM CDT 9:17 PM CDT
Moon 5:53 AM CDT (4/8) 6:32 PM CDT (4/8)
Length of Visible Light 13h 34m
Length of Day
12h 44m
Waning Crescent, 3% of the Moon is Illuminated
Apr 8
Waning Crescent
Apr 10
New
Apr 18
First Quarter
Apr 25
Full
May 2
Last Quarter

Hourly Weather History & Observations

Time (CDT) Temp. Dew Point Humidity Pressure Visibility Wind Dir Wind Speed Gust Speed Precip Events Conditions
12:51 AM 66.9 °F 57.0 °F 70% 29.79 in 10.0 mi South 23.0 mph 34.5 mph N/A   Partly Cloudy
1:03 AM 68.0 °F 57.2 °F 68% 29.80 in 10.0 mi South 20.7 mph 29.9 mph N/A   Mostly Cloudy
1:51 AM 68.0 °F 57.9 °F 70% 29.78 in 10.0 mi South 20.7 mph 29.9 mph N/A   Overcast
2:51 AM 66.9 °F 59.0 °F 76% 29.76 in 10.0 mi South 19.6 mph 31.1 mph N/A   Overcast
3:51 AM 66.9 °F 60.1 °F 79% 29.74 in 10.0 mi South 19.6 mph 28.8 mph N/A   Overcast
4:51 AM 66.9 °F 59.0 °F 76% 29.73 in 10.0 mi South 20.7 mph 28.8 mph N/A   Overcast
5:51 AM 66.9 °F 60.1 °F 79% 29.74 in 10.0 mi South 17.3 mph - N/A   Overcast
6:51 AM 66.9 °F 60.1 °F 79% 29.74 in 9.0 mi South 12.7 mph - N/A   Overcast
7:51 AM 66.9 °F 61.0 °F 81% 29.75 in 7.0 mi South 15.0 mph - N/A   Overcast
8:51 AM 66.9 °F 62.1 °F 84% 29.76 in 5.0 mi South 12.7 mph - N/A   Haze
9:51 AM 68.0 °F 62.1 °F 81% 29.77 in 5.0 mi South 12.7 mph - N/A   Haze
10:27 AM 69.8 °F 62.6 °F 78% 29.78 in 6.0 mi South 13.8 mph - N/A   Haze
10:51 AM 69.1 °F 63.0 °F 81% 29.77 in 6.0 mi South 13.8 mph - N/A   Haze
11:51 AM 70.0 °F 63.0 °F 78% 29.77 in 5.0 mi South 13.8 mph - N/A   Haze
12:51 PM 70.0 °F 63.0 °F 78% 29.75 in 5.0 mi South 24.2 mph 29.9 mph N/A   Haze
1:51 PM 71.1 °F 64.0 °F 78% 29.74 in 6.0 mi South 17.3 mph - N/A   Haze
2:51 PM 72.0 °F 64.0 °F 76% 29.72 in 6.0 mi South 16.1 mph - N/A   Haze
3:51 PM 73.0 °F 64.0 °F 73% 29.70 in 6.0 mi South 17.3 mph 21.9 mph N/A   Haze
4:51 PM 73.0 °F 63.0 °F 71% 29.68 in 6.0 mi South 20.7 mph 25.3 mph N/A   Haze
5:51 PM 73.9 °F 64.0 °F 71% 29.67 in 6.0 mi SSE 10.4 mph - N/A   Haze
6:51 PM 73.9 °F 63.0 °F 68% 29.67 in 6.0 mi SSE 15.0 mph - N/A   Haze
7:51 PM 73.9 °F 62.1 °F 66% 29.66 in 7.0 mi SSE 17.3 mph - N/A   Overcast
8:51 PM 73.9 °F 59.0 °F 59% 29.68 in 9.0 mi South 18.4 mph 27.6 mph N/A   Overcast
9:51 PM 73.0 °F 60.1 °F 64% 29.68 in 10.0 mi SSE 19.6 mph 26.5 mph N/A   Overcast
10:51 PM 73.0 °F 61.0 °F 66% 29.70 in 9.0 mi SSE 21.9 mph 27.6 mph N/A   Overcast
11:35 PM 71.6 °F 60.8 °F 69% 29.72 in 9.0 mi SSE 16.1 mph 24.2 mph N/A   Overcast
11:51 PM 71.6 °F 62.6 °F 73% 29.72 in 9.0 mi SSE 16.1 mph 24.2 mph N/A   Overcast